Overview Statistics Trail Chart Weather Telemetry Raw packets
 

This is the latest recevied weather packets stored in our database for station/object OE3AOG-10. If no packets are shown the sender has not sent any weather packets the latest 10 day(s).

<< 1 2 3 4 >>
Time Temp. Humidity Pressure Rain* Wind** Luminosity Snow
1788633734 20.56° C 51% 1023.1 hPa - - - -
1788630134 21.67° C 47% 1022.3 hPa - - - -
1788626534 23.33° C 43% 1021.7 hPa - - - -
1788622934 24.44° C 40% 1021.2 hPa - - - -
1788619333 26.67° C 39% 1021 hPa - - - -
1788615733 25° C 40% 1021.3 hPa - - - -
1788612135 25.56° C 40% 1021.5 hPa - - - -
1788608535 26.11° C 41% 1021.6 hPa - - - -
1788604935 22.22° C 50% 1021.4 hPa - - - -
1788601334 20.56° C 51% 1021.7 hPa - - - -
1788597734 20° C 50% 1021.9 hPa - - - -
1788594133 19.44° C 50% 1022.2 hPa - - - -
1788590533 18.89° C 50% 1022.4 hPa - - - -
1788586933 20° C 51% 1020.8 hPa - - - -
1788583333 20° C 54% 1018.8 hPa - - - -
1788579732 23.33° C 50% 1016.7 hPa - - - -
1788576137 20° C 53% 1015.9 hPa - - - -
1788572532 20.56° C 51% 1015.5 hPa - - - -
1788568932 20.56° C 52% 1015.3 hPa - - - -
1788565332 21.11° C 49% 1015.3 hPa - - - -
1788561732 21.11° C 48% 1015 hPa - - - -
1788558131 22.78° C 45% 1014.8 hPa - - - -
1788554531 23.89° C 45% 1014.6 hPa - - - -
1788550930 23.89° C 45% 1014.5 hPa - - - -
1788547332 25.56° C 40% 1014.4 hPa - - - -

* Rain since midnight (hover to see other rain measurements)
** Current wind speed in m/s (hover to see current wind gust speed)